Location: Chervonnoye
(48.6000°N, 34.4000°E)
Time: 14:01:47
(UTC+00:00)

CAS-4B - Pass Details

Date: 11 December 2021
Orbit: 529 x 539 km, 43.0° (Epoch: 18 January)

Event Time Altitude Azimuth Distance (km) Brightness Sun altitude
Rises 15:39:58 0° 232° (SW) 2,677 ? -17.7°
Reaches altitude 10° 15:42:27 10° 220° (SW) 1,786 ? -18.1°
Maximum altitude 15:45:53 26° 162° (SSE) 1,063 ? -18.7°
Enters shadow 15:46:50 24° 139° (SE) 1,134 ? -18.8°
